When you browse on this site, cookies collect data to enhance your experience and personalize the content and advertising you see.
Visit our Privacy Policy to learn more. By continuing to use the site, you agree to this use of cookies and data.
  • In Romania
  • List of Countries
  • For 7 days
  • Water Temperature
  • Satellite Maps
  • Weather Map
  • Weather Widgets
  • user-avatar
    Login

    Hourly Weather Lons-le-Saunier

    Today, 26 June, Wednesday

    Time Temperature Precipitation Wind Pressure Humidity
    00:00 +21°C° 0 mm 0 mps 735 mmHg 68%
    01:00 +21°C° 0 mm 0 mps 734 mmHg 69%
    02:00 +23°C° 0 mm 1 mps 734 mmHg 70%
    03:00 +22°C° 0 mm 1 mps 734 mmHg 71%
    04:00 +23°C° 0 mm 1 mps 734 mmHg 72%
    05:00 +22°C° 0 mm 0 mps 735 mmHg 72%
    06:00 +26°C° 0 mm 1 mps 735 mmHg 72%
    07:00 +28°C° 0 mm 1 mps 735 mmHg 66%
    08:00 +30°C° 0 mm 1 mps 735 mmHg 60%
    09:00 +32°C° 0 mm 1 mps 735 mmHg 54%
    10:00 +34°C° 0 mm 1 mps 735 mmHg 50%
    11:00 +35°C° 0 mm 1 mps 735 mmHg 45%
    12:00 +38°C° 0 mm 2 mps 736 mmHg 39%
    13:00 +38°C° 0 mm 2 mps 735 mmHg 38%
    14:00 +38°C° 0 mm 2 mps 735 mmHg 37%
    15:00 +38°C° 0 mm 2 mps 735 mmHg 36%
    16:00 +35°C° 0 mm 1 mps 735 mmHg 45%
    17:00 +33°C° 0 mm 1 mps 735 mmHg 55%
    18:00 +29°C° 0 mm 0 mps 735 mmHg 64%
    19:00 +27°C° 0 mm 0 mps 735 mmHg 66%
    20:00 +28°C° 0 mm 1 mps 735 mmHg 68%
    21:00 +26°C° 0 mm 1 mps 735 mmHg 70%
    22:00 +25°C° 0 mm 1 mps 735 mmHg 72%
    23:00 +25°C° 0 mm 1 mps 735 mmHg 74%

    Tomorrow, 27 June, Thursday

    Time Temperature Precipitation Wind Pressure Humidity
    00:00 +24°C° 0 mm 1 mps 735 mmHg 75%
    01:00 +24°C° 0 mm 1 mps 735 mmHg 75%
    02:00 +23°C° 0 mm 1 mps 735 mmHg 75%
    03:00 +23°C° 0 mm 1 mps 735 mmHg 75%
    04:00 +22°C° 0 mm 0 mps 735 mmHg 75%
    05:00 +23°C° 0 mm 0 mps 735 mmHg 75%
    06:00 +24°C° 0 mm 0 mps 735 mmHg 75%
    07:00 +26°C° 0 mm 0 mps 735 mmHg 68%
    08:00 +30°C° 0 mm 1 mps 735 mmHg 62%
    09:00 +33°C° 0 mm 1 mps 735 mmHg 56%
    10:00 +34°C° 0 mm 1 mps 735 mmHg 52%
    11:00 +36°C° 0 mm 2 mps 735 mmHg 48%
    12:00 +38°C° 0 mm 2 mps 735 mmHg 43%
    13:00 +37°C° 0 mm 2 mps 735 mmHg 46%
    14:00 +37°C° 0 mm 3 mps 734 mmHg 48%
    15:00 +37°C° 0 mm 3 mps 734 mmHg 50%
    16:00 +36°C° 0 mm 3 mps 734 mmHg 58%
    17:00 +34°C° 0 mm 3 mps 733 mmHg 66%
    18:00 +31°C° 0 mm 3 mps 733 mmHg 74%
    19:00 +30°C° 0 mm 2 mps 734 mmHg 79%
    20:00 +28°C° 0 mm 2 mps 734 mmHg 84%
    21:00 +26°C° 0 mm 2 mps 734 mmHg 89%
    22:00 +25°C° 0 mm 2 mps 734 mmHg 86%
    23:00 +25°C° 0 mm 2 mps 734 mmHg 84%

    Day after tomorrow, 28 June, Friday

    Time Temperature Precipitation Wind Pressure Humidity
    00:00 +24°C° 0 mm 2 mps 734 mmHg 81%
    01:00 +23°C° 0 mm 1 mps 734 mmHg 82%
    02:00 +22°C° 0 mm 1 mps 733 mmHg 83%
    03:00 +22°C° 0 mm 1 mps 733 mmHg 85%
    04:00 +22°C° 0 mm 1 mps 733 mmHg 83%
    05:00 +23°C° 0 mm 1 mps 733 mmHg 81%
    06:00 +24°C° 0 mm 1 mps 733 mmHg 79%
    07:00 +26°C° 0 mm 1 mps 733 mmHg 73%
    08:00 +28°C° 0 mm 1 mps 733 mmHg 66%
    09:00 +30°C° 0 mm 1 mps 733 mmHg 59%
    10:00 +31°C° 0 mm 2 mps 733 mmHg 57%
    11:00 +33°C° 0 mm 3 mps 732 mmHg 54%
    12:00 +34°C° 0 mm 3 mps 732 mmHg 51%
    13:00 +34°C° 0 mm 3 mps 732 mmHg 50%
    14:00 +34°C° 0 mm 4 mps 732 mmHg 48%
    15:00 +34°C° 0 mm 4 mps 732 mmHg 46%
    16:00 +31°C° 0 mm 3 mps 732 mmHg 54%
    17:00 +29°C° 0 mm 3 mps 732 mmHg 61%
    18:00 +28°C° 0 mm 2 mps 731 mmHg 68%
    19:00 +26°C° 0 mm 2 mps 731 mmHg 72%
    20:00 +24°C° 0 mm 2 mps 731 mmHg 75%
    21:00 +21°C° 0 mm 2 mps 732 mmHg 79%
    22:00 +21°C° 0 mm 1 mps 731 mmHg 78%
    23:00 +20°C° 0 mm 1 mps 731 mmHg 76%

    29 June, Saturday

    Time Temperature Precipitation Wind Pressure Humidity
    00:00 +20°C° 0 mm 1 mps 731 mmHg 75%
    01:00 +19°C° 0 mm 1 mps 731 mmHg 75%
    02:00 +19°C° 0 mm 1 mps 731 mmHg 75%
    03:00 +18°C° 0 mm 1 mps 730 mmHg 75%
    04:00 +17°C° 0 mm 0 mps 730 mmHg 74%
    05:00 +18°C° 0 mm 0 mps 730 mmHg 74%
    06:00 +19°C° 0 mm 0 mps 730 mmHg 73%
    07:00 +22°C° 0 mm 0 mps 730 mmHg 66%
    08:00 +26°C° 0 mm 1 mps 730 mmHg 60%
    09:00 +28°C° 0 mm 1 mps 731 mmHg 53%
    10:00 +30°C° 0 mm 1 mps 730 mmHg 49%
    11:00 +31°C° 0 mm 1 mps 730 mmHg 46%
    12:00 +33°C° 0 mm 1 mps 730 mmHg 42%
    13:00 +33°C° 0 mm 1 mps 730 mmHg 42%
    14:00 +33°C° 0 mm 1 mps 730 mmHg 41%
    15:00 +33°C° 0 mm 1 mps 730 mmHg 40%
    16:00 +32°C° 0 mm 1 mps 730 mmHg 50%
    17:00 +30°C° 0 mm 1 mps 730 mmHg 59%
    18:00 +29°C° 0 mm 1 mps 730 mmHg 69%
    19:00 +27°C° 0 mm 1 mps 730 mmHg 71%
    20:00 +25°C° 0 mm 1 mps 730 mmHg 73%
    21:00 +24°C° 0 mm 1 mps 730 mmHg 75%
    22:00 +23°C° 0 mm 1 mps 730 mmHg 73%
    23:00 +23°C° 0 mm 1 mps 730 mmHg 71%

    30 June, Sunday

    Time Temperature Precipitation Wind Pressure Humidity
    00:00 +23°C° 0 mm 1 mps 730 mmHg 69%
    01:00 +22°C° 0 mm 1 mps 730 mmHg 71%
    02:00 +22°C° 0 mm 1 mps 730 mmHg 73%
    03:00 +21°C° 0 mm 1 mps 731 mmHg 76%
    04:00 +22°C° 0 mm 1 mps 731 mmHg 76%
    05:00 +23°C° 0 mm 2 mps 731 mmHg 77%
    06:00 +24°C° 0 mm 2 mps 731 mmHg 78%
    07:00 +26°C° 0 mm 2 mps 732 mmHg 72%
    08:00 +28°C° 0 mm 2 mps 732 mmHg 66%
    09:00 +30°C° 0 mm 2 mps 732 mmHg 60%
    10:00 +31°C° 0 mm 2 mps 732 mmHg 55%
    11:00 +33°C° 0 mm 1 mps 732 mmHg 50%
    12:00 +34°C° 0 mm 1 mps 732 mmHg 45%
    13:00 +34°C° 0 mm 1 mps 732 mmHg 45%
    14:00 +34°C° 0 mm 1 mps 732 mmHg 46%
    15:00 +34°C° 0 mm 1 mps 732 mmHg 46%
    16:00 +33°C° 0 mm 1 mps 732 mmHg 54%
    17:00 +32°C° 0 mm 1 mps 732 mmHg 63%
    18:00 +30°C° 0 mm 1 mps 732 mmHg 71%
    19:00 +29°C° 0 mm 1 mps 732 mmHg 77%
    20:00 +27°C° 0 mm 1 mps 732 mmHg 83%
    21:00 +25°C° 0 mm 1 mps 732 mmHg 88%
    22:00 +24°C° 0 mm 1 mps 732 mmHg 88%
    23:00 +24°C° 0 mm 1 mps 732 mmHg 89%

    1 July, Monday

    Time Temperature Precipitation Wind Pressure Humidity
    00:00 +23°C° 0 mm 1 mps 732 mmHg 89%
    01:00 +23°C° 0 mm 1 mps 732 mmHg 89%
    02:00 +22°C° 0 mm 1 mps 732 mmHg 90%
    03:00 +22°C° 0 mm 1 mps 732 mmHg 91%
    04:00 +23°C° 0 mm 1 mps 732 mmHg 89%
    05:00 +22°C° 0 mm 0 mps 732 mmHg 88%
    06:00 +22°C° 0 mm 0 mps 733 mmHg 86%
    07:00 +25°C° 0 mm 1 mps 733 mmHg 84%
    08:00 +26°C° 0 mm 1 mps 733 mmHg 81%
    09:00 +27°C° 0 mm 1 mps 733 mmHg 79%
    10:00 +28°C° 0.1 mm 1 mps 733 mmHg 77%
    11:00 +28°C° 0.1 mm 2 mps 732 mmHg 75%
    12:00 +29°C° 0.1 mm 2 mps 732 mmHg 73%
    13:00 +30°C° 0 mm 2 mps 732 mmHg 70%
    14:00 +31°C° 0 mm 2 mps 732 mmHg 66%
    15:00 +32°C° 0 mm 2 mps 732 mmHg 62%
    16:00 +30°C° 0.2 mm 2 mps 732 mmHg 69%
    17:00 +29°C° 0.2 mm 2 mps 732 mmHg 77%
    18:00 +28°C° 0.2 mm 3 mps 733 mmHg 85%
    19:00 +26°C° 0.5 mm 2 mps 733 mmHg 87%
    20:00 +24°C° 0.5 mm 2 mps 733 mmHg 90%
    21:00 +21°C° 0.5 mm 2 mps 733 mmHg 93%
    22:00 +20°C° 0.1 mm 2 mps 733 mmHg 93%
    23:00 +21°C° 0.1 mm 1 mps 733 mmHg 94%
    Show more